Home   Weather   Scranton   Past weeks

Flag for USA Past Weather in Scranton, Pennsylvania, USA — Yesterday and Last 2 Weeks

Now
77 °F

Passing clouds.


Feels Like: 79 °F
Forecast: 55 / 76 °F
Wind: 8 mph from South

Location: Barre - Scranton - Wilkes-Barre / Scranton International Airport

Current Time: Apr 27, 2017 at 6:50:27 pm

Latest Report: Apr 27, 2017 at 5:54 pm


Visibility: 8 mi

Pressure: 29.74 "Hg

Humidity: 56%

Dew Point: 60 °F

Location of ScrantonLocation

Past Weather in Scranton — Graph

°F

Scranton Temperature Yesterday

Maximum temperature yesterday: 74 °F (at 5:54 pm)
Minimum temperature yesterday: 53 °F (at 1:54 am)
Average temperature yesterday: 62 °F

High & Low Weather Summary for the Past Weeks

 TemperatureHumidityPressure
High82 °F (Apr 16, 2:54 pm)97% (Apr 20, 3:14 am)30.42 "Hg (Apr 20, 3:14 am)
Low36 °F (Apr 23, 5:54 am)17% (Apr 23, 3:54 pm)29.72 "Hg (Apr 26, 3:54 pm)
Average57 °F64%30.07 "Hg
* Reported Apr 12 4:54 pm — Apr 27 4:54 pm, Scranton, Weather by CustomWeather, © 2017

Note: Actual official high and low records may vary slightly from our data, if they occured in-between our weather recording intervals... More about our weather records

Advertising

Scranton Weather History for the Previous 24 Hours

Scroll right to see more
 ConditionsComfort  
Time TempWeatherWind HumidityBarometerVisibility
4:54 pm
Thu, Apr 27
77 °FPassing clouds.9 mph54%29.74 "Hg8 mi
3:54 pm80 °FSunny.10 mph49%29.74 "Hg9 mi
2:54 pm79 °FSunny.12 mph50%29.75 "Hg9 mi
1:54 pm76 °FSunny.12 mph58%29.79 "Hg9 mi
12:54 pm72 °FScattered clouds.7 mph64%29.82 "Hg9 mi
11:54 am70 °FOvercast.10 mph68%29.84 "Hg8 mi
10:54 am67 °FOvercast.8 mph73%29.84 "Hg8 mi
9:54 am65 °FOvercast.No wind76%29.85 "Hg8 mi
8:54 am63 °FOvercast.3 mph81%29.85 "Hg7 mi
7:54 am62 °FOvercast.N/A80%29.84 "Hg6 mi
6:54 am60 °FFog.No wind86%29.84 "Hg5 mi
5:54 am58 °FFog.No wind93%29.82 "Hg6 mi
4:54 am57 °FFog.No wind93%29.81 "Hg6 mi
3:54 am57 °FFog.3 mph93%29.81 "Hg6 mi
2:54 am58 °FPassing clouds.5 mph90%29.81 "Hg7 mi
2:19 am57 °FPassing clouds.3 mph93%29.82 "Hg8 mi
1:54 am58 °FPassing clouds.No wind90%29.81 "Hg9 mi
12:54 am60 °FPassing clouds.No wind83%29.81 "Hg10 mi
11:54 pm
Wed, Apr 26
60 °FClear.3 mph86%29.81 "Hg10 mi
10:54 pm63 °FClear.5 mph78%29.79 "Hg10 mi
9:54 pm65 °FClear.3 mph73%29.78 "Hg10 mi
8:54 pm68 °FPassing clouds.No wind65%29.76 "Hg10 mi
7:54 pm70 °FPassing clouds.No wind61%29.75 "Hg10 mi
6:54 pm72 °FSunny.5 mph57%29.72 "Hg10 mi
Weather by CustomWeather, © 2017

See weather overviewHow to use our weather pages